Regional Weather Roundup
Issued by NWS

Home | Current Version | Previous Version | Graphics & Text | Print | Product List | Glossary Off
Versions: 1 2 3 4 5 6 7 8 9 10 11 12 13 14 15 16 17 18 19 20 21 22 23 24 25 26 27 28 29 30 31 32 33 34 35 36 37 38 39 40 41 42 43 44 45 46 47 48 49 50

000
ASUS43 KTOP 160408
RWRKS

WEATHER ROUNDUP FOR KANSAS
NATIONAL WEATHER SERVICE GOODLAND KS
1100 PM CDT TUE AUG 15 2017

NOTE:  "FAIR" INDICATES FEW OR NO CLOUDS BELOW 12,000 FEET WITH NO
SIGNIFICANT WEATHER AND/OR OBSTRUCTIONS TO VISIBILITY.

KSZ001>006-013>018-027>032-041>047-160500-
NORTHWEST KANSAS

CITY           SKY/WX    TMP DP  RH WIND       PRES   REMARKS
GOODLAND       CLOUDY    69  65  86 S9        29.84R
HAYS           CLEAR     76  70  82 S15       29.81R
HILL CITY      CLEAR     78  67  68 S12       29.81R
RUSSELL        CLEAR     77  70  79 SE16      29.80R
$$

KSZ061>065-074>080-084>089-160500-
SOUTHWEST KANSAS

CITY           SKY/WX    TMP DP  RH WIND       PRES   REMARKS
DODGE CITY     CLOUDY    75  65  70 SE10      29.83R
ELKHART          N/A     73  61  66 SW8         N/A
GARDEN CITY    CLOUDY    74  63  68 SE14      29.80F
GREAT BEND     CLEAR     74  70  87 SE15      29.82S
LIBERAL        CLOUDY    78  69  73 SE14      29.82S
PRATT          CLEAR     75  71  89 SE9       29.84S
$$

KSZ066>073-081>083-090>101-160500-
SOUTHEAST KANSAS

CITY           SKY/WX    TMP DP  RH WIND       PRES   REMARKS
CHANUTE        CLOUDY    78  73  84 S9        29.87R
COFFEYVILLE    CLOUDY    74  70  87 CALM      29.86R
HUTCHINSON     CLEAR     74  72  93 E6        29.82S
MEDICINE LODGE   N/A     75  70  84 SE9       29.81S
NEWTON         MOCLDY    75  72  90 SE8       29.86R
PARSONS        CLOUDY    75  70  84 S3        29.88S
WICHITA INTL   PTCLDY    77  74  90 SE8       29.83R
WICHITA JABRA  CLOUDY    77  74  90 SE10      29.84R
WICHITA MCCONL CLOUDY    77  73  86 S10       29.84S
WINFIELD       CLOUDY    73  69  87 S7        29.85S
$$

KSZ007>012-019>026-033>040-048>060-102>105-160500-
NORTHEAST KANSAS

CITY           SKY/WX    TMP DP  RH WIND       PRES   REMARKS
CONCORDIA      CLEAR     76  70  82 S13G21    29.83S
EMPORIA        CLOUDY    77  73  87 SE8       29.86R
LAWRENCE       CLOUDY    76  73  91 E6        29.87S
MANHATTAN      CLOUDY    78  73  84 E5        29.83S
MARYSVILLE     PTCLDY    75  72  88 SE7       29.85R
OLATHE IND     PTCLDY    76  71  85 E6        29.88F
OLATHE EXE     PTCLDY    76  71  85 E7        29.88F
SALINA         CLOUDY    80  70  71 SE10      29.82S
TOPEKA BILLARD CLOUDY    78  74  87 SE7       29.86S
TOPEKA FORBES  CLOUDY    78  74  87 SE6       29.87S
$$




USA.gov is the U.S. government's official web portal to all federal, state and local government web resources and services.